Wind_Speed
58 58 58 58 58 58 58 57 57 56 56 56 56 55 55 55 55 56 56 56 56 56 56 55 55 55 55 56 56 56 56 56 56 57 57 56 55 54 53 53 53 52
58 59 59 59 58 58 58 58 58 58 57 58 58 57 57 57 57 57 57 57 57 58 57 57 57 58 58 58 59 59 59 59 59 59 59 59 58 57 56 56 56 55
59 59 59 59 59 59 59 59 59 59 59 59 59 59 59 59 59 59 59 59 59 59 59 60 60 61 61 61 61 62 62 62 62 61 61 60 60 60 59 58 58 57
60 60 60 60 60 60 60 60 60 60 60 60 60 60 60 61 61 61 61 62 62 62 62 62 63 63 64 64 64 64 64 64 64 63 63 62 62 62 62 61 60 59
61 61 61 61 61 61 61 61 61 61 61 61 61 62 62 62 63 64 64 64 64 64 64 65 65 66 66 66 66 66 66 66 66 66 66 65 65 64 64 64 62 60
62 62 62 62 62 62 62 62 62 62 63 63 63 64 64 65 65 65 66 66 66 66 67 67 67 67 68 68 68 68 68 69 68 68 68 68 68 67 66 65 64 62
60 61 62 62 63 63 63 64 64 64 65 65 65 66 66 66 66 67 67 68 68 68 68 68 68 69 70 70 71 71 70 70 70 69 69 69 68 68 67 65 64 63
58 59 60 61 62 63 63 64 65 65 66 66 66 67 67 67 67 68 68 69 69 69 69 70 70 71 71 72 72 72 72 71 70 69 68 68 67 66 66 64 63 63
58 59 59 60 61 62 62 63 64 65 65 66 67 67 67 68 68 69 69 70 70 70 71 71 71 71 72 72 72 72 72 71 70 69 68 67 66 65 64 64 63 63
58 58 59 60 60 61 62 63 63 64 65 66 67 67 68 68 69 69 70 70 70 70 71 71 71 72 72 72 72 72 72 71 70 68 66 65 65 64 64 64 64 63
58 59 60 60 61 61 62 63 63 64 65 65 66 67 67 68 69 69 69 69 70 70 70 71 72 72 73 73 73 72 72 71 68 66 65 64 64 64 64 64 64 64
59 60 60 61 62 62 63 63 64 64 64 64 65 65 66 67 67 68 68 68 69 70 71 72 73 73 74 74 74 72 70 68 66 65 64 64 64 64 65 65 65 65
59 60 61 61 62 63 63 64 64 64 63 64 64 65 65 66 67 68 69 69 70 71 72 73 73 74 75 74 73 71 68 66 65 64 64 64 65 65 65 66 66 66
60 61 62 62 63 63 63 63 63 64 64 64 65 66 67 68 68 69 70 71 71 72 73 74 74 74 73 72 70 68 66 65 64 64 65 65 66 67 67 67 67 67
62 62 63 63 63 63 63 63 64 64 65 66 67 68 68 69 70 70 71 72 73 73 73 73 72 70 68 67 67 66 66 65 65 65 66 67 68 69 70 70 69 69
63 63 64 64 64 64 64 64 64 65 66 67 67 68 69 69 70 70 71 71 71 71 69 68 67 66 66 66 66 67 67 67 67 68 68 69 70 71 72 72 72 72
64 65 65 65 64 64 64 64 65 65 66 67 67 68 69 69 69 69 68 68 68 67 67 67 68 67 67 68 68 68 69 69 70 71 71 72 72 73 73 74 74 74
65 65 65 65 64 63 63 64 64 65 66 66 67 67 67 67 66 66 66 67 68 68 69 69 69 69 69 69 70 70 70 71 72 73 73 74 75 75 75 76 76 76
65 65 64 63 63 62 63 63 64 64 65 65 65 64 64 64 64 66 68 69 69 69 69 69 69 70 70 71 71 72 73 73 74 75 75 76 77 77 78 78 78 78
64 63 62 61 61 62 62 63 63 63 63 62 62 63 64 65 66 68 69 68 68 68 68 69 70 71 72 73 74 75 76 76 77 78 78 78 79 79 79 80 80 80
61 60 59 60 60 61 61 62 62 62 61 62 63 65 66 67 67 68 68 68 68 68 69 70 72 73 74 75 77 78 78 79 80 80 81 80 80 80 80 80 80 79
58 58 58 59 60 60 61 61 61 61 63 64 66 67 67 68 68 68 68 68 69 70 71 72 74 75 76 77 78 79 80 81 81 81 82 82 81 81 80 79 78 77
58 58 58 59 60 60 61 61 62 63 65 66 67 67 68 68 68 68 69 69 70 71 73 74 75 77 78 79 80 80 81 82 82 82 83 82 81 80 79 77 75 73
57 58 58 59 60 60 61 62 63 64 65 66 67 67 67 67 68 69 69 70 72 73 74 76 77 78 79 80 81 81 82 82 82 82 82 81 80 78 76 74 72 70
57 58 59 59 60 61 62 63 64 65 66 66 67 67 67 68 68 69 70 72 73 75 76 77 78 79 80 81 81 81 82 81 81 80 79 78 76 75 73 71 69 68
58 59 60 61 62 63 64 64 65 66 66 67 67 67 68 68 69 70 72 73 74 76 77 78 79 80 80 81 81 80 80 78 77 75 74 73 72 71 69 68 67 65
Wind_Direction
282 283 283 284 284 284 284 284 284 284 284 284 284 284 284 284 284 285 285 286 286 287 287 287 288 289 289 289 290 290 289 289 289 289 289 289 288 288 287 286 285 284
282 282 283 283 284 284 284 284 284 284 284 284 284 284 284 284 284 284 285 285 285 286 287 287 288 288 289 289 290 290 290 290 290 290 290 289 289 288 287 286 286 285
282 282 283 283 283 283 283 283 283 283 284 284 284 284 284 284 284 285 285 285 286 286 287 288 288 289 289 290 290 290 291 291 290 290 290 289 289 288 287 286 286 285
281 282 282 282 282 282 282 282 283 283 284 284 284 285 285 286 286 286 287 287 288 288 289 289 290 290 291 291 291 291 291 291 290 290 289 289 288 287 287 286 286 285
280 280 280 281 281 281 282 282 283 284 284 285 285 286 287 287 288 288 289 290 290 290 291 291 291 292 292 292 292 291 291 291 290 290 289 289 288 288 287 287 287 286
279 280 280 280 281 281 282 283 283 284 284 285 286 286 287 288 289 289 290 291 291 291 292 292 292 292 292 291 291 291 290 290 289 289 288 288 288 287 287 287 287 286
280 280 281 281 281 282 282 282 283 283 284 285 285 286 287 288 288 289 290 290 291 291 291 292 292 292 291 291 291 290 290 289 289 288 287 287 286 286 285 285 285 284
281 281 281 282 282 282 282 283 283 284 284 285 285 286 287 287 288 288 289 289 290 290 291 291 291 291 291 291 291 291 290 290 289 288 287 286 285 284 283 283 282 281
281 281 282 282 282 282 283 284 284 285 285 285 286 286 287 287 287 288 288 289 289 290 290 290 290 290 291 291 291 291 290 290 289 288 287 285 284 282 281 280 279 279
282 282 282 283 283 284 284 285 285 285 286 286 286 287 287 287 288 288 288 289 289 289 290 290 290 291 291 291 291 291 290 290 289 288 285 284 282 281 279 278 278 277
283 283 284 284 285 285 285 285 286 286 286 287 287 288 288 288 289 289 289 290 290 290 290 290 291 291 291 291 291 290 290 290 289 287 284 282 281 279 278 277 277 277
283 284 284 285 285 285 286 286 286 287 287 288 289 289 289 290 290 290 290 290 290 290 290 291 291 290 290 290 290 290 289 288 287 286 284 282 281 279 278 278 277 277
285 285 286 286 286 286 286 287 287 287 288 289 289 289 290 290 290 291 291 291 291 291 291 290 290 290 290 290 290 289 288 287 286 285 284 282 281 280 279 278 277 277
287 287 287 287 288 288 288 288 288 288 289 289 289 290 290 290 290 291 291 291 291 291 290 290 290 290 290 290 290 289 288 287 286 285 284 283 281 280 279 278 277 276
288 289 289 289 289 289 289 289 289 290 290 290 290 290 290 290 290 291 291 291 291 291 291 291 291 291 290 290 290 289 288 287 286 284 283 282 282 281 280 280 279 278
289 290 290 290 290 290 290 290 290 290 290 290 290 290 290 290 290 291 291 291 291 291 292 292 291 291 290 290 289 288 287 286 285 284 283 282 282 282 281 281 281 280
289 289 290 290 290 289 289 289 289 289 289 289 289 290 290 290 290 290 291 292 292 292 292 292 291 290 290 289 288 287 287 286 285 284 284 283 282 282 282 281 281 281
288 289 289 289 289 289 289 289 289 289 289 289 290 290 290 290 291 291 292 293 292 292 292 291 291 290 289 289 289 288 287 286 285 285 284 284 284 283 282 282 281 281
288 288 288 288 288 288 288 288 289 289 290 290 291 291 291 291 291 292 293 293 292 292 292 291 291 291 290 290 290 289 288 288 287 286 286 285 285 284 284 283 282 281
287 287 287 287 287 287 288 289 289 290 290 291 291 291 291 292 292 293 293 293 292 292 292 292 292 292 292 292 291 290 290 289 289 288 288 287 286 286 285 284 283 282
286 286 286 287 288 288 289 290 290 290 290 291 291 292 292 293 293 294 294 293 293 294 294 294 294 293 293 292 292 292 291 291 291 290 290 289 288 287 286 285 284 283
286 287 287 288 288 289 289 290 289 290 291 292 294 294 295 295 295 295 295 295 294 294 294 294 294 293 293 293 293 293 294 294 294 293 293 292 291 290 289 288 286 285
287 287 288 288 289 289 290 290 290 292 293 295 296 296 295 295 295 295 295 295 295 295 295 295 295 295 295 295 296 296 296 296 296 296 295 295 294 293 292 290 289 287
288 288 288 289 289 290 291 292 293 295 296 296 296 295 295 294 294 295 295 295 295 296 296 296 296 297 297 297 298 298 298 298 298 297 297 296 296 295 294 293 292 291
288 289 289 290 291 292 293 294 295 295 295 295 295 295 294 295 295 295 296 296 297 297 297 297 297 298 298 299 299 299 299 299 299 299 298 298 297 297 296 296 295 293
289 290 291 292 293 293 294 294 294 294 294 294 294 294 295 295 296 296 297 297 298 298 298 298 298 299 299 300 300 300 300 300 300 299 299 299 298 298 298 297 297 296
Height
10664 10664 10663 10663 10662 10661 10659 10658 10657 10656 10654 10653 10651 10650 10648 10647 10645 10644 10642 10641 10640 10638 10637 10636 10634 10633 10632 10631 10629 10628 10627 10625 10624 10623 10622 10622 10621 10620 10619 10617 10616 10616
10658 10658 10658 10657 10656 10654 10653 10651 10650 10649 10648 10646 10645 10643 10642 10641 10639 10638 10636 10635 10633 10632 10630 10629 10628 10626 10625 10623 10622 10621 10619 10618 10616 10615 10614 10613 10612 10611 10610 10609 10608 10607
10653 10652 10652 10650 10649 10647 10646 10644 10643 10642 10641 10639 10638 10636 10635 10633 10632 10631 10630 10628 10627 10625 10624 10622 10621 10619 10617 10616 10614 10613 10611 10610 10608 10607 10606 10605 10604 10602 10601 10600 10599 10598
10648 10647 10645 10644 10642 10641 10639 10638 10636 10635 10634 10632 10630 10629 10627 10626 10624 10623 10621 10620 10619 10618 10616 10615 10613 10611 10609 10608 10606 10605 10603 10602 10600 10598 10597 10596 10595 10594 10592 10591 10590 10589
10643 10641 10639 10638 10636 10634 10633 10631 10630 10628 10627 10625 10623 10622 10620 10618 10616 10614 10613 10611 10610 10609 10608 10606 10604 10602 10601 10599 10598 10596 10594 10593 10591 10589 10588 10586 10585 10585 10583 10581 10581 10580
10637 10635 10633 10632 10630 10629 10627 10625 10624 10622 10620 10619 10617 10615 10613 10611 10609 10607 10605 10604 10602 10601 10599 10597 10596 10594 10592 10591 10589 10588 10586 10584 10582 10581 10579 10577 10575 10575 10574 10572 10571 10570
10630 10629 10627 10626 10624 10623 10621 10619 10618 10616 10614 10613 10611 10609 10607 10605 10603 10601 10599 10597 10595 10593 10591 10589 10588 10585 10583 10581 10580 10578 10577 10575 10574 10572 10570 10568 10566 10565 10564 10564 10562 10561
10624 10623 10621 10619 10618 10616 10615 10613 10612 10610 10608 10606 10605 10603 10601 10599 10597 10595 10592 10590 10588 10586 10584 10582 10580 10578 10575 10573 10571 10569 10567 10565 10564 10562 10561 10559 10557 10556 10555 10554 10553 10553
10617 10616 10614 10613 10611 10609 10608 10606 10605 10603 10601 10599 10597 10596 10594 10592 10590 10588 10585 10583 10581 10578 10576 10574 10572 10570 10567 10564 10562 10559 10557 10555 10554 10552 10551 10549 10548 10547 10545 10544 10543 10543
10611 10609 10607 10606 10604 10603 10601 10599 10597 10595 10594 10592 10590 10588 10586 10584 10582 10580 10578 10576 10573 10571 10568 10565 10563 10561 10558 10556 10553 10550 10548 10545 10543 10542 10540 10539 10538 10537 10535 10534 10534 10533
10605 10603 10601 10599 10598 10596 10594 10592 10590 10588 10586 10584 10582 10580 10578 10575 10573 10571 10569 10567 10564 10562 10559 10557 10554 10551 10549 10546 10544 10541 10538 10535 10533 10531 10530 10529 10528 10527 10525 10524 10524 10523
10598 10596 10595 10593 10591 10589 10586 10584 10582 10580 10578 10576 10574 10571 10569 10567 10564 10562 10560 10558 10556 10553 10551 10548 10545 10542 10539 10536 10533 10531 10528 10526 10524 10522 10520 10519 10518 10516 10515 10514 10513 10513
10591 10590 10588 10586 10583 10581 10579 10576 10574 10572 10570 10568 10565 10563 10561 10558 10556 10553 10551 10549 10547 10544 10541 10538 10535 10532 10529 10526 10523 10520 10518 10516 10514 10512 10510 10509 10508 10506 10505 10504 10503 10502
10584 10582 10580 10578 10576 10573 10571 10568 10566 10564 10561 10559 10557 10554 10552 10550 10547 10545 10542 10540 10537 10534 10532 10529 10525 10522 10518 10515 10512 10510 10508 10506 10504 10502 10500 10498 10496 10495 10494 10493 10492 10491
10576 10574 10572 10570 10567 10565 10563 10560 10558 10555 10553 10550 10548 10545 10543 10540 10538 10535 10533 10530 10527 10524 10522 10519 10515 10512 10509 10506 10502 10499 10497 10496 10494 10492 10490 10488 10485 10483 10481 10480 10479 10479
10568 10566 10564 10562 10559 10557 10555 10552 10549 10547 10544 10541 10539 10536 10534 10531 10529 10526 10524 10521 10518 10515 10512 10509 10506 10503 10500 10497 10494 10491 10488 10485 10483 10481 10480 10478 10475 10473 10470 10468 10467 10466
10561 10559 10556 10554 10552 10549 10547 10544 10542 10539 10536 10533 10531 10528 10525 10523 10520 10518 10515 10512 10509 10506 10503 10500 10496 10493 10490 10487 10484 10482 10479 10476 10473 10471 10469 10466 10464 10462 10460 10457 10455 10453
10554 10551 10549 10547 10544 10542 10539 10537 10534 10531 10528 10525 10523 10520 10518 10515 10512 10510 10507 10504 10500 10497 10493 10490 10486 10483 10480 10477 10474 10471 10469 10466 10463 10460 10458 10455 10453 10450 10448 10446 10444 10441
10546 10544 10542 10539 10537 10534 10532 10529 10526 10524 10521 10518 10515 10513 10510 10507 10505 10502 10499 10495 10492 10488 10484 10480 10477 10473 10470 10467 10464 10460 10458 10455 10452 10449 10447 10444 10441 10439 10436 10434 10432 10429
10539 10537 10534 10532 10529 10527 10524 10521 10519 10516 10513 10511 10508 10505 10503 10500 10497 10494 10490 10487 10483 10479 10475 10471 10468 10464 10460 10456 10453 10449 10446 10443 10440 10436 10434 10432 10429 10426 10424 10421 10418 10416
10531 10529 10527 10524 10522 10519 10517 10514 10511 10509 10506 10503 10501 10498 10495 10492 10489 10485 10482 10478 10474 10470 10467 10463 10458 10454 10450 10446 10442 10438 10435 10432 10428 10424 10421 10418 10415 10412 10410 10407 10405 10402
10524 10522 10519 10517 10514 10512 10509 10506 10504 10501 10498 10496 10492 10489 10486 10483 10479 10476 10473 10469 10466 10462 10458 10454 10450 10445 10441 10436 10432 10428 10424 10420 10416 10411 10407 10403 10400 10397 10394 10392 10390 10388
10517 10514 10512 10509 10507 10504 10502 10499 10496 10494 10491 10487 10484 10481 10477 10474 10470 10467 10464 10461 10457 10454 10449 10445 10440 10435 10431 10426 10422 10418 10413 10408 10403 10398 10394 10389 10385 10382 10379 10376 10374 10372
10509 10507 10504 10502 10499 10497 10494 10491 10489 10486 10483 10480 10476 10473 10469 10466 10462 10459 10456 10452 10449 10445 10440 10435 10430 10425 10421 10416 10412 10408 10403 10398 10392 10386 10382 10376 10371 10368 10365 10361 10359 10356
10502 10499 10497 10494 10492 10489 10486 10484 10481 10479 10476 10472 10469 10465 10461 10458 10455 10451 10447 10444 10440 10435 10431 10426 10421 10416 10412 10407 10403 10398 10393 10387 10381 10375 10370 10365 10360 10355 10352 10349 10345 10342
10494 10492 10490 10487 10484 10482 10479 10476 10474 10471 10468 10465 10461 10458 10454 10450 10446 10443 10439 10435 10431 10426 10421 10416 10411 10407 10402 10398 10393 10388 10382 10376 10371 10365 10360 10355 10350 10346 10342 10338 10334 10330